www.pogodaiklimat.ru

Погода и климат >> Архив погоды >> Россия >> Пензенская область >> Земетчино


АРХИВ ПОГОДЫ в Земетчино

Время (UTC), дата Ветер
(напр.,м/с)
 
Видим.   Явления Облачность Т
(С)
Тd
(С)
f
(%)
Тe
(С)
Тes
(С)
Комфортность P
(гПа)
Po
(гПа)
Тmin
(С)
Tmax
(С)
R
(мм)
R24
(мм)
S
(см)
03 16.09 ЮЗ 2 4000 м слаб. ливневой дождь 10/10 660 м
[Cb calv]
+8.7 +7.0 89 +7 +7 1007.9 992.0 +8.2 0.9
06 16.09 Ю 3 4000 м слаб. дождь 10/10 800 м
[Frnb Ns]
+10.2 +7.8 85 +8 +8 1005.6 989.8
09 16.09 ЮЗ 4 20 км {дождь} 10/8 600 м
[Sc As trans]
+15.2 +7.2 59 +14 +15 1002.7 987.2
12 16.09 З 4
{11}
20 км {дождь} 9/8 600 м
[Sc Ac As]
+15.0 +6.8 58 +14 +14 1002.0 986.5
15 16.09 ЮЗ 2
{10}
20 км 3/3 600 м
[Sc Ac lent]
+14.4 +8.0 65 +14 +14 1001.9 986.4 +16.4 0.7
18 16.09 З 1 10 км 6/0
[Cs]
+11.5 +8.2 80 +11 +11 1002.9 987.2
21 16.09 З 1 10 км ясно +10.1 +7.2 82 +10 +10 1002.4 986.7
00 17.09 Ю 1 10 км ясно +8.3 +6.6 89 +7 +7 1001.9 986.1
03 17.09 ЮЗ 2 10 км 6/0
[Ac lent Ci fib]
+7.6 +5.9 89 +5 +5 1001.7 985.9 +7.5
06 17.09 З 2 20 км 6/0
[Ac trans]
+12.8 +7.5 70 +12 +14 1001.4 985.9
09 17.09 З 5-12
{12}
20 км 8/8 600 м
[Cu med, cong]
+16.8 +5.5 47 +16 +17 1000.2 984.9
12 17.09 З 3
{12}
20 км 8/8
[Cb calv]
+14.8 +6.3 57 +14 +15 1000.4 985.0
15 17.09 З 2 20 км в посл. час ливневой дождь 6/6 600 м
[Cb calv]
+13.5 +5.6 59 +13 +13 1000.1 984.6 +17.8 1
18 17.09 З 1 10 км {ливн. осадки} 3/0
[Ac trans]
+8.8 +3.8 71 +8 +8 1001.6 985.9
21 17.09 З 1 10 км ясно +5.8 +2.4 79 +5 +5 1002.3 986.3
00 18.09 ЮЗ 1 10 км 8/0
[Cs]
+5.1 +2.8 85 +4 +4 1002.7 986.7
03 18.09 штиль 0 10 км 9/0
[Cs]
+3.2 +2.1 92 +2 +2 1002.8 986.6 +2.2
06 18.09 ЮЗ 2 20 км 8/0
[Ac cast Ci fib]
+11.2 +4.9 65 +10 +13 1002.1 986.5
09 18.09 ЮЗ 4 20 км 8/4 600 м
[Cu hum Ac As]
+15.0 +4.3 49 +14 +16 1001.5 986.1
12 18.09 Ю 2 20 км 10/6 600 м
[Cu hum As trans]
+13.4 +3.6 51 +13 +14 999.7 984.2
15 18.09 В 1 10 км в посл. час ливневой дождь 10/10 660 м
[Cb calv]
+9.2 +8.6 96 +8 +8 997.9 982.2 +15.0 2
18 18.09 В 1 4000 м слаб. ливневой дождь 10/10 600 м
[Cb calv]
+8.9 +8.4 97 +8 +8 995.9 980.2
21 18.09 З 4 4000 м слаб. ливневой дождь 10/10 630 м
[Cb calv]
+6.8 +6.7 99 +3 +3 994.5 978.7
00 19.09 СЗ 4 4000 м слаб. ливневой дождь 10/10 600 м
[Cb calv]
+7.6 +7.3 98 +4 +4 996.3 980.6
03 19.09 СЗ 4 10 км {ливн. осадки} 8/8 600 м
[Cb calv]
+7.5 +6.6 94 +4 +4 1000.9 985.1 +6.4 18
06 19.09 З 4 20 км {ливн. осадки} 8/8 600 м
[Cb calv]
+9.9 +7.9 87 +7 +8 1004.7 989.0
09 19.09 СЗ 5-11
{16}
10 км слаб. ливневой дождь 10/10 660 м
[Cb calv]
+7.4 +6.1 91 +3 +3 1008.4 992.4
12 19.09 З 5
{11}
20 км {ливн. осадки} 8/6 600 м
[Cb calv Ci]
+11.1 +6.0 71 +8 +9 1009.5 993.7
15 19.09 З 3 20 км {ливн. осадки} 8/8 600 м
[Cb calv]
+10.5 +4.8 68 +9 +9 1011.4 995.6 +12.8 2
18 19.09 ЮЗ 1 10 км {ливн. осадки} 6/0
[Ac As]
+7.6 +5.6 87 +7 +7 1012.7 996.7
21 19.09 ЮЗ 1 10 км 6/0
[Ac As Ci fib]
+7.0 +5.7 91 +6 +6 1013.1 997.0
00 20.09 Ю 1 10 км ясно +4.5 +4.2 98 +3 +3 1013.5 997.3
03 20.09 ЮВ 1 10 км 4/0
[Ci]
+2.9 +2.9 100 +1 +1 1013.8 997.5 +2.7
06 20.09 ЮЗ 2 20 км 8/3 600 м
[Sc Ac trans Ci fib]
+7.5 +6.3 92 +5 +7 1013.6 997.6
09 20.09 З 2 20 км 9/5 600 м
[Cu med, cong Ac trans]
+11.6 +5.7 67 +11 +13 1013.0 997.2
12 20.09 З 3 20 км 8/3 600 м
[Cu med, cong Ac trans]
+13.0 +3.4 52 +12 +13 1012.1 996.4
15 20.09 СЗ 1 20 км 8/8 600 м
[Cb cap Ac lent]
+10.6 +4.6 66 +10 +10 1012.3 996.5 +13.1
18 20.09 З 1 10 км 10/8 600 м
[Cb calv Ac As]
+8.2 +6.4 88 +7 +7 1013.3 997.3
21 20.09 штиль 0 10 км 8/0
[Ac trans]
+6.2 +5.1 93 +5 +5 1012.9 996.9
00 21.09 СВ 1 10 км 9/0
[Ac trans]
+3.9 +3.7 99 +2 +2 1013.0 996.8
03 21.09 штиль 0 10 км 10/10 720 м
[Cb calv]
+4.1 +3.7 97 +3 +3 1012.8 996.6 +3.8
06 21.09 СВ 1 20 км {ливн. осадки} 9/6 600 м
[Cb calv Ac trans]
+6.1 +5.6 97 +5 +6 1013.0 996.9
09 21.09 СЗ 2 20 км 8/8 600 м
[Cb calv]
+9.5 +4.6 71 +8 +10 1012.1 996.2
12 21.09 СЗ 2 20 км в посл. час ливневой дождь 8/5 600 м
[Cb calv Ac trans]
+8.8 +4.1 72 +7 +8 1011.9 995.9
15 21.09 штиль 0 20 км {ливн. осадки} 8/3 600 м
[Cb calv Ac trans]
+6.5 +5.3 92 +5 +5 1011.8 995.7 +10.3 4
18 21.09 ЮЗ 1 10 км {ливн. осадки} 9/5 600 м
[Cb calv Ac trans]
+4.5 +3.9 96 +3 +3 1011.6 995.5
21 21.09 штиль 0 10 км ясно +0.1 0.0 99 -1 -1 1010.8 994.3
00 22.09 ЮВ 1 10 км 4/0
[Ac trans]
-1.2 -1.2 100 -4 -4 1008.6 992.1
03 22.09 ЮВ 2 10 км 9/0
[Ac As]
+0.9 +0.7 99 -3 -3 1005.8 989.5 -1.3
06 22.09 Ю 4 10 км слаб. дождь 10/0
[As op]
+3.6 +2.6 93 -1 -1 1001.9 985.8
09 22.09 ЮЗ 3
{15}
20 км {дождь} 6/6 600 м
[Sc]
+5.3 +4.1 92 +2 +3 904.3 981.5 +8.2 3
12 22.09 СЗ 6-12
{13}
4000 м слаб. дождь 10/10 800 м
[Frnb Ns]
+7.1 +5.9 92 +3 +3 995.8 980.1
15 22.09 З 3
{15}
20 км {ливн. осадки, дождь} 6/6 600 м
[Sc]
+6.0 +3.2 82 +3 +3 996.9 981.1 +8.2 3
18 22.09 З 6-12
{12}
10 км {ливн. осадки, дождь} 4/0
[Ac trans]
+4.6 +1.3 79 -1 -1 997.7 981.8
21 22.09 СЗ 6-11
{15}
10 км {ливн. осадки} 10/10 720 м
[Cb calv]
+2.9 +1.5 90 -3 -3 1000.0 983.9
00 23.09 СЗ 5
{12}
10 км {ливн. осадки} 10/10 600 м
[Cb calv]
+3.2 +1.9 91 -2 -2 1003.9 987.8

 

Местоположение метеостанции Земетчино (Пензенская область, Россия): широта 53.48 долгота 42.63 высота над уровнем моря 131 м.

В архиве по умолчанию представлена погода в Земетчино за последнюю неделю. Архивные данные за месяц целиком и за предыдущие месяцы, начиная с января 2011 года, Вы можете получить, выбрав интересующий диапазон дат из раскрывающегося списка и нажав кнопку "Ввод!".


*Определитесь, кто Вы:
робот инопланетянин человек

Внимание! Время в таблицах - всемирное. Для получения местного времени необходимо прибавить поправку, которая равна 3 ч.

Смотрите также архив погоды в соседних городах и на ближайших метеорологических станциях:

Погода в Пачелме (Пензенская область, Россия) (49 км)
Погода в Моршанске (Тамбовская область, Россия) (55 км)
Погода в Белинском (Пензенская область, Россия) (76 км)
Погода в Торбеево (Мордовия, Россия) (78 км)
Погода в Кирсанове (Тамбовская область, Россия) (90 км)
Погода в Каменке (Пензенская область, Россия) (99 км)
Погода в Сасово (Рязанская область, Россия) (106 км)
Погода в Сараях (Рязанская область, Россия) (111 км)
Погода в Тамбове (Тамбовская область, Россия) (115 км)
Погода в Инсаре (Мордовия, Россия) (123 км)

Пояснения к столбцам:

Ветер - указаны скорость ветра в м/с - средняя за 10 мин, порывы в срок и между сроками (в фигурных скобках) и направление, откуда дует ветер: С - северный, СВ - северо-восточный, В - восточный, ЮВ - юго-восточный, Ю - южный, ЮЗ - юго-западный, З - западный, СЗ - северо-западный.
Видимость - горизонтальная дальность видимости в метрах или километрах. При видимости от 1 до 10 км при отсутствии осадков обычно наблюдается дымка, при ухудшении видимости до 1 км и менее - туман. В сухую погоду видимость может ухудшаться дымом, пылью или мглою.
Явления - указаны атмосферные явления, наблюдавшиеся в срок или в последний час перед сроком; фигурными скобками обозначены явления, наблюдавшиеся между сроками (за 1-3 часа до срока); квадратными скобками обозначены град или гололедные отложения с указанием их диаметра в мм.
Облачность - указаны через наклонную черту общая и нижняя облачность в баллах и высота нижней границы облаков в метрах; квадратными скобками обозначены формы облаков: Ci - перистые, Cs - перисто-слоистые, Cc - перисто-кучевые, Ac - высококучевые, As - высокослоистые, Sc - слоисто-кучевые, Ns - слоисто-дождевые, Cu - кучевые, Cb - кучево-дождевые. Подробнее классификацию облаков см. в Атласе облаков (PDF).
T - Температура воздуха - температура, измеренная на высоте 2 м над землей.
Td - Температура точки росы - температура, при понижении до которой содержащийся в воздухе водяной пар достигнет насыщения.
f - Относительная влажность воздуха - влажноcть воздуха, измеренная на высоте 2 м над землей.
Te - Эффективная температура - температура, которую ощущает одетый по сезону человек в тени. Характеристика душности погоды. При расчете учитывается влияние влажности воздуха и скорости ветра на теплоощущения человека.
Tes - Эффективная температура на солнце - температура, которую ощущает человек, с поправкой на солнечный нагрев. Характеристика знойности погоды. Зависит от высоты солнца над горизонтом, облачности и скорости ветра. Ночью, в пасмурную погоду, а также при ветре 12 м/с и более поправка равна нулю.
P - Атмосферное давление - приведенное к уровню моря атмосферное давление.
Po - Атмосферное давление - измеренное на уровне метеостанции атмосферное давление.
Tmin - Минимальная температура - минимум температуры воздуха на высоте 2 м над землей.
Tmax - Максимальная температура - максимум температуры воздуха на высоте 2 м над землей.
R - Количество осадков - Количество выпавших осадков за период времени, мм. При наведении курсора мыши на число - период времени, за который выпало указанное количество осадков.
R24 - Количество осадков - Количество выпавших осадков за 24 часа, мм.
S - Снежный покров - Высота снежного покрова, см. При наведении курсора мыши на число - состояние снежного покрова и степень покрытия местности в баллах.